{"data":{"norad_id":33595,"intl_designator":"2009-007A","name":"EXPRESS-AM44","alt_names":[],"object_type":"PAYLOAD","status":"ACTIVE","operator":null,"country":"CIS","launch_date":"2009-02-11","launch_site_code":"TYMSC","launch_vehicle":null,"mission":null,"orbit_class":"UNKNOWN","rcs_meters":54.0998,"size_class":null,"mass_kg":null,"dimensions":null,"purposes":["comms"],"wikipedia_slug":null,"has_3d_model":false,"image_url":null,"decayed_at":null,"tle_current":{"epoch":"2026-09-19T20:45:28.599840Z","epoch_age_seconds":73067,"freshness":"FRESH","line1":"1 33595U 09007A   26262.86491435 -.00000092  00000+0  00000+0 0  9999","line2":"2 33595   3.6999  77.1691 0003395  93.8252 128.1617  1.00272583 53230","mean_motion":1.00272583,"eccentricity":0.0003395,"inclination_deg":3.6999,"raan_deg":77.1691,"arg_perigee_deg":93.8252,"mean_anomaly_deg":128.1617,"bstar":0,"rev_number":5323,"period_min":1436.0854751293,"perigee_km":35772.056403754,"apogee_km":35800.686104858,"semimajor_km":42164.508254306,"source":"CELESTRAK","updated_at":"2026-09-20T09:00:35.135132Z"}}}